Lid_Strength_Index
3 5 7 9 13 16 18 16 15 13 13 8 6 7 8 7 8 11 3 1 1 1 -0 -0 -1 -1 -1 -1 -1 -1 -1 -1 -1 -1 -1 -1 -1 -1 -1 -1 -1 -1 -1 -1 -1 -1 -1 -1 -1
3 7 9 12 15 17 17 15 14 12 12 11 6 7 7 8 5 5 4 1 1 0 -0 -0 -1 -1 -1 -1 -1 -1 -1 -1 -1 -1 -1 -1 -1 -1 -1 -1 -1 -1 -1 -1 -1 -1 -1 -1 -1
6 8 11 14 17 16 17 15 13 12 12 12 9 5 6 7 4 4 2 1 0 0 -0 -0 -1 -1 -1 -1 -1 -1 -1 -1 -1 -1 -1 -1 -1 -1 -1 -1 -1 -1 -1 -1 -1 -1 -1 -1 -1
9 10 12 16 17 15 13 13 13 12 11 11 6 7 5 3 4 2 1 1 1 0 -0 -0 -1 -1 -1 -1 -1 -1 -1 -1 -1 -1 -1 -1 -1 -1 -1 -1 -1 -1 -2 -1 -1 -1 -1 -1 -1
10 12 16 18 17 15 13 11 12 13 12 11 12 11 7 4 2 1 1 1 1 1 0 -0 -1 -1 -1 -1 -1 -1 -1 -1 -1 -1 -1 -1 -1 -1 -1 -1 -1 -1 -2 -1 -1 -1 -1 -1 -2
12 14 18 18 17 13 13 11 13 13 12 11 11 11 8 3 3 2 1 1 0 1 0 -0 -1 -1 -1 -1 -1 -1 -1 -1 -1 -1 -1 -1 -1 -1 -1 -1 -1 -1 -1 -1 -1 -1 -1 -1 -2
12 15 18 18 17 14 13 11 12 12 13 11 10 10 7 5 2 2 1 1 1 0 0 -0 -0 -0 -1 -1 -1 -1 -1 -1 -1 -1 -1 -1 -1 -1 -1 -1 -1 -1 -1 -1 -1 -1 -2 -2 -1
12 14 17 17 16 15 12 11 12 12 11 9 6 8 8 5 2 1 1 1 1 1 0 0 -0 -0 -0 -0 -1 -1 -1 -1 -1 -1 -1 -1 -1 -1 -1 -1 -1 -1 -1 -1 -1 -2 -2 -1 -1
12 16 19 17 15 15 13 12 10 10 10 10 9 8 4 3 2 3 3 2 2 1 1 0 0 0 -0 -0 -0 -1 -1 -1 -1 -1 -1 -1 -0 -0 -1 -1 -1 -1 -1 -1 -1 -1 -1 -1 -1
13 17 16 14 12 14 12 12 11 10 11 11 10 8 3 3 3 4 4 4 3 2 1 1 0 0 -0 -0 -0 -0 -0 -0 -0 -0 -0 -0 -0 -0 -1 -1 -1 -1 -1 -1 -1 -1 -1 -1 -1
12 14 14 12 11 11 11 11 11 11 12 10 10 7 5 4 4 4 4 3 3 2 1 1 1 0 0 0 -0 -0 -0 -0 -0 -0 -0 -1 -0 -0 -0 -0 -0 -0 -1 -0 -1 -1 -1 -1 -1
13 11 11 12 11 11 11 10 11 11 10 9 8 9 5 5 5 4 4 3 3 2 2 1 0 0 0 -0 0 0 0 -0 -0 -0 -0 -0 -0 -0 -0 -0 -0 -0 -0 -0 -0 -0 -1 -1 -1
14 12 10 10 10 11 10 11 10 11 9 9 8 8 6 5 4 4 3 3 3 3 2 1 1 1 0 0 0 0 0 0 -0 -0 -0 -0 0 0 -0 -0 -0 -0 -0 -0 -0 -0 -0 -0 -0
12 12 11 10 10 10 10 10 10 9 9 9 8 8 9 4 4 4 3 3 3 2 2 1 1 0 0 0 0 0 0 -0 -0 -0 -0 -0 -0 -0 0 0 -0 -0 -0 -1 -0 -0 0 0 0
12 13 11 12 12 11 10 11 10 8 7 9 10 9 10 10 4 4 3 3 3 2 2 1 1 0 1 0 0 0 0 -0 0 -0 -0 -0 0 -0 -0 0 0 -0 -1 -1 -0 -0 0 1 1
12 14 16 12 11 11 10 14 10 8 8 9 10 10 10 10 4 4 3 3 2 2 2 1 1 1 1 1 0 0 0 -0 0 -0 -0 -0 0 1 0 0 0 -0 -0 -0 0 1 1 1 1
15 17 16 13 11 11 12 14 11 9 9 9 9 10 10 10 9 4 3 3 3 2 2 2 1 1 1 1 0 0 0 0 0 -0 -0 -0 -0 1 1 0 -0 -0 0 0 0 0 1 1 1
16 15 14 14 12 11 12 12 10 10 10 9 9 9 10 10 9 7 3 2 2 2 2 2 1 1 1 1 1 2 2 1 1 0 -0 -0 -0 0 1 1 -0 -0 1 1 1 1 0 1 2
12 13 14 12 10 12 12 12 11 10 10 11 10 9 9 10 8 8 3 3 2 3 3 2 2 2 1 2 2 2 2 1 2 1 1 0 -0 0 1 1 1 -0 1 0 0 1 1 1 1
12 13 14 12 11 11 12 12 11 10 10 10 10 9 9 9 10 9 4 3 3 3 3 3 2 3 1 2 2 2 2 1 1 1 1 0 -0 -0 0 1 0 0 1 1 1 1 2 1 2
12 13 13 13 11 10 12 14 13 11 10 10 10 9 8 9 10 10 8 5 3 3 3 3 3 3 2 2 2 2 1 1 1 1 1 0 0 0 1 1 1 1 1 1 1 1 1 3 2
13 10 10 11 12 17 12 18 15 13 13 11 10 10 9 8 9 10 10 7 4 4 3 2 2 3 2 2 2 3 3 3 2 1 1 1 1 1 1 1 1 1 0 1 1 1 2 2 3
12 9 10 11 13 15 15 17 14 13 13 12 11 10 10 8 8 9 9 8 4 3 3 3 3 3 2 2 2 3 3 2 1 1 1 1 0 1 1 1 1 1 0 0 0 2 2 3 2
9 11 12 13 15 19 15 16 16 13 13 12 11 10 9 9 9 8 8 7 5 3 3 2 2 2 2 1 1 2 2 2 2 2 2 2 1 1 1 1 1 1 0 1 2 2 2 2 1
10 14 19 21 21 20 14 17 14 10 10 10 9 10 9 9 9 8 9 9 4 3 3 3 3 3 2 2 2 2 2 2 2 2 2 2 2 1 1 1 1 1 1 1 1 2 2 2 2
12 13 19 23 23 20 15 18 14 9 7 7 8 8 9 9 10 9 8 9 7 3 3 3 3 3 2 2 2 2 2 2 2 2 2 1 1 2 2 2 1 1 1 2 2 2 3 2 3
13 15 11 16 17 19 17 14 10 8 8 8 8 8 9 9 8 8 8 9 8 5 3 3 3 3 2 2 2 2 1 2 2 1 1 2 2 2 2 1 2 1 2 3 4 5 5 5 5
11 10 16 16 22 23 18 17 15 12 11 9 8 8 8 7 6 5 5 7 9 7 3 3 2 3 2 2 2 2 2 1 1 1 2 2 3 3 3 3 3 4 5 6 7 8 7 8 7
14 14 14 14 16 20 20 18 11 10 10 10 9 8 8 7 6 6 5 5 8 7 3 3 3 3 3 2 2 2 2 2 2 3 2 3 3 3 4 4 5 6 8 9 9 9 9 9 7
11 14 14 18 19 16 17 17 10 10 10 10 9 8 7 6 6 6 5 6 8 8 3 3 3 3 2 2 2 2 2 2 3 3 3 3 4 4 4 6 8 9 10 10 10 9 9 7 7